^^
Your Local Weather - Clay, NY Station Historical Data
Daily Summary for January 16, 2017 Units:  Metric    English   Both
« Previous Day
Next Day »
Daily Weekly Monthly Yearly Custom
  High: Low: Average:
Temperature: 4.3 °C -8.1 °C -3.5 °C
Dew Point: -4.6 °C -9.7 °C -7.2 °C
Humidity: 89% 42% 77%
Wind Speed: 3.2km/h 0km/h 0.2km/h
Wind Gust: 6.4km/h - -
Wind- - SW
Pressure: 1029 hPa 1023.2 hPa -
Precipitation: 0 mm    
Historical Graphs
 
 
Tabular Data for January 16, 2017
Time Temperature Dew Point Pressure Wind Wind Speed Wind Gust Humidity Rainfall Rate (Hourly) solar
00:00 -2.8 °C -7.6 °C 1028.7 hPa Calm     70% 0 mm 0 W/m2
00:06 -3.1 °C -7.4 °C 1028.7 hPa Calm     72% 0 mm 0 W/m2
00:12 -3.3 °C -7.6 °C 1028.7 hPa Calm     72% 0 mm 0 W/m2
00:18 -3.5 °C -7.7 °C 1028.7 hPa Calm   1.6 km/h 73% 0 mm 0 W/m2
00:24 -3.6 °C -7.6 °C 1028.7 hPa Calm     74% 0 mm 0 W/m2
00:30 -3.9 °C -7.8 °C 1028.7 hPa Calm     74% 0 mm 0 W/m2
00:36 -4.1 °C -7.7 °C 1028.7 hPa Calm     76% 0 mm 0 W/m2
00:42 -4.1 °C -7.7 °C 1028.7 hPa Calm     76% 0 mm 0 W/m2
00:48 -4.2 °C -7.8 °C 1028.7 hPa Calm     76% 0 mm 0 W/m2
00:54 -4.3 °C -7.9 °C 1028.7 hPa Calm     76% 0 mm 0 W/m2
01:00 -4.4 °C -7.9 °C 1028.3 hPa Calm     77% 0 mm 0 W/m2
01:06 -4.6 °C -8 °C 1028.3 hPa Calm     77% 0 mm 0 W/m2
01:12 -4.6 °C -7.8 °C 1028.3 hPa Calm     78% 0 mm 0 W/m2
01:18 -4.6 °C -7.9 °C 1028.7 hPa Calm     78% 0 mm 0 W/m2
01:24 -4.6 °C -7.9 °C 1028.7 hPa Calm   1.6 km/h 78% 0 mm 0 W/m2
01:30 -4.6 °C -7.8 °C 1028.7 hPa Calm     78% 0 mm 0 W/m2
01:36 -4.5 °C -7.8 °C 1028.7 hPa Calm     78% 0 mm 0 W/m2
01:42 -4.5 °C -7.8 °C 1028.7 hPa Calm     78% 0 mm 0 W/m2
01:48 -4.4 °C -7.9 °C 1028.7 hPa Calm     77% 0 mm 0 W/m2
01:54 -4.4 °C -7.8 °C 1029 hPa Calm   1.6 km/h 77% 0 mm 0 W/m2
02:00 -4.4 °C -7.8 °C 1029 hPa Calm   1.6 km/h 77% 0 mm 0 W/m2
02:06 -4.4 °C -7.8 °C 1029 hPa Calm   1.6 km/h 77% 0 mm 0 W/m2
02:12 -4.4 °C -7.9 °C 1029 hPa Calm     77% 0 mm 0 W/m2
02:18 -4.6 °C -8 °C 1029 hPa Calm   1.6 km/h 77% 0 mm 0 W/m2
02:24 -4.6 °C -8.1 °C 1029 hPa Calm   1.6 km/h 77% 0 mm 0 W/m2
02:30 -4.8 °C -8.1 °C 1029 hPa Calm   3.2 km/h 78% 0 mm 0 W/m2
02:36 -4.9 °C -8.1 °C 1029 hPa Calm   3.2 km/h 78% 0 mm 0 W/m2
02:42 -5 °C -8.2 °C 1029 hPa Calm     78% 0 mm 0 W/m2
02:48 -5.2 °C -8.3 °C 1029 hPa Calm     79% 0 mm 0 W/m2
02:54 -5.4 °C -8.3 °C 1029 hPa Calm     80% 0 mm 0 W/m2
03:00 -5.6 °C -8.4 °C 1029 hPa Calm     80% 0 mm 0 W/m2
03:06 -5.7 °C -8.6 °C 1029 hPa Calm     80% 0 mm 0 W/m2
03:12 -5.8 °C -8.5 °C 1029 hPa Calm     81% 0 mm 0 W/m2
03:18 -5.9 °C -8.6 °C 1029 hPa Calm     81% 0 mm 0 W/m2
03:24 -6 °C -8.7 °C 1029 hPa Calm     81% 0 mm 0 W/m2
03:30 -6.2 °C -8.7 °C 1029 hPa Calm     82% 0 mm 0 W/m2
03:36 -6.2 °C -8.8 °C 1028.7 hPa Calm     82% 0 mm 0 W/m2
03:42 -6.3 °C -8.7 °C 1028.7 hPa Calm     83% 0 mm 0 W/m2
03:48 -6.3 °C -8.7 °C 1028.3 hPa Calm     83% 0 mm 0 W/m2
03:54 -6.4 °C -8.8 °C 1028.3 hPa Calm     83% 0 mm 0 W/m2
04:00 -6.5 °C -8.8 °C 1028.3 hPa Calm     84% 0 mm 0 W/m2
04:06 -6.6 °C -8.9 °C 1028.3 hPa Calm     84% 0 mm 0 W/m2
04:12 -6.7 °C -8.9 °C 1028.3 hPa Calm     84% 0 mm 0 W/m2
04:18 -6.7 °C -8.8 °C 1028.3 hPa Calm     85% 0 mm 0 W/m2
04:24 -6.8 °C -8.9 °C 1028.3 hPa Calm     85% 0 mm 0 W/m2
04:30 -6.9 °C -9.1 °C 1028.3 hPa Calm     85% 0 mm 0 W/m2
04:36 -7.1 °C -9.2 °C 1028.3 hPa Calm     85% 0 mm 0 W/m2
04:42 -7.1 °C -9.2 °C 1028.3 hPa Calm     85% 0 mm 0 W/m2
04:48 -7.1 °C -9.1 °C 1028 hPa Calm     86% 0 mm 0 W/m2
04:54 -7.2 °C -9.1 °C 1028 hPa Calm     86% 0 mm 0 W/m2
05:00 -7.2 °C -9.2 °C 1028 hPa Calm     86% 0 mm 0 W/m2
05:06 -7.3 °C -9.2 °C 1028 hPa Calm     86% 0 mm 0 W/m2
05:12 -7.2 °C -8.9 °C 1028 hPa Calm     87% 0 mm 0 W/m2
05:18 -7.2 °C -8.9 °C 1028 hPa Calm     87% 0 mm 0 W/m2
05:24 -7.3 °C -9.1 °C 1028 hPa Calm     87% 0 mm 0 W/m2
05:30 -7.4 °C -9.4 °C 1028 hPa Calm     86% 0 mm 0 W/m2
05:36 -7.6 °C -9.5 °C 1028.3 hPa Calm     86% 0 mm 0 W/m2
05:42 -7.6 °C -9.6 °C 1028.3 hPa Calm     86% 0 mm 0 W/m2
05:48 -7.7 °C -9.4 °C 1028.3 hPa Calm     87% 0 mm 0 W/m2
05:54 -7.7 °C -9.4 °C 1028.3 hPa Calm     87% 0 mm 0 W/m2
06:00 -7.7 °C -9.5 °C 1028.3 hPa Calm     87% 0 mm 0 W/m2
06:06 -7.8 °C -9.6 °C 1028 hPa Calm     87% 0 mm 0 W/m2
06:12 -7.8 °C -9.6 °C 1028 hPa Calm     87% 0 mm 0 W/m2
06:18 -7.9 °C -9.7 °C 1028 hPa Calm     87% 0 mm 0 W/m2
06:24 -7.9 °C -9.6 °C 1028 hPa Calm   1.6 km/h 88% 0 mm 0 W/m2
06:30 -7.9 °C -9.7 °C 1028 hPa Calm     87% 0 mm 0 W/m2
06:36 -7.9 °C -9.6 °C 1028.3 hPa Calm     88% 0 mm 0 W/m2
06:42 -7.9 °C -9.6 °C 1028.3 hPa Calm     88% 0 mm 0 W/m2
06:48 -7.9 °C -9.6 °C 1028.3 hPa Calm     88% 0 mm 0 W/m2
06:54 -7.9 °C -9.6 °C 1028.3 hPa Calm     88% 0 mm 0 W/m2
07:00 -7.9 °C -9.6 °C 1028.3 hPa Calm     88% 0 mm 0 W/m2
07:06 -7.9 °C -9.6 °C 1028.3 hPa Calm     88% 0 mm 0 W/m2
07:12 -7.9 °C -9.6 °C 1028.3 hPa Calm     88% 0 mm 0 W/m2
07:18 -7.9 °C -9.6 °C 1028.3 hPa Calm     88% 0 mm 0 W/m2
07:24 -8 °C -9.6 °C 1028.3 hPa Calm     88% 0 mm 0 W/m2
07:30 -8.1 °C -9.7 °C 1028.3 hPa Calm     88% 0 mm 5 W/m2
07:36 -7.9 °C -9.4 °C 1028.3 hPa Calm     89% 0 mm 7 W/m2
07:42 -7.7 °C -9.2 °C 1028.3 hPa Calm     89% 0 mm 9 W/m2
07:48 -7.7 °C -9.2 °C 1028.3 hPa Calm     89% 0 mm 12 W/m2
07:54 -7.6 °C -9.1 °C 1028.3 hPa Calm     89% 0 mm 16 W/m2
08:00 -7.5 °C -9 °C 1028.3 hPa Calm     89% 0 mm 21 W/m2
08:06 -7.4 °C -8.9 °C 1028.3 hPa Calm     89% 0 mm 26 W/m2
08:12 -7.4 °C -8.9 °C 1028.3 hPa Calm     89% 0 mm 28 W/m2
08:18 -7.3 °C -8.8 °C 1028.7 hPa Calm     89% 0 mm 28 W/m2
08:24 -7.3 °C -8.8 °C 1028.7 hPa Calm     89% 0 mm 33 W/m2
08:30 -7.2 °C -8.7 °C 1028.7 hPa Calm     89% 0 mm 62 W/m2
08:36 -6.9 °C -8.4 °C 1028.7 hPa Calm     89% 0 mm 90 W/m2
08:42 -6.6 °C -8.1 °C 1028.3 hPa Calm     89% 0 mm 132 W/m2
08:48 -6.2 °C -7.7 °C 1028.3 hPa Calm     89% 0 mm 139 W/m2
08:54 -5.8 °C -7.3 °C 1028.7 hPa Calm     89% 0 mm 139 W/m2
09:00 -5.4 °C -7.1 °C 1028.3 hPa Calm     88% 0 mm 160 W/m2
09:06 -4.9 °C -6.8 °C 1028.3 hPa Calm     87% 0 mm 178 W/m2
09:12 -4.4 °C -6.6 °C 1028.3 hPa Calm     85% 0 mm 197 W/m2
09:18 -3.8 °C -6.6 °C 1028.3 hPa Calm     81% 0 mm 227 W/m2
09:24 -3.3 °C -6.4 °C 1028.3 hPa Calm     79% 0 mm 239 W/m2
09:30 -2.9 °C -6.4 °C 1028.3 hPa Calm     77% 0 mm 234 W/m2
09:36 -2.7 °C -6.6 °C 1028.3 hPa SW 1.6 km/h 1.6 km/h 75% 0 mm 264 W/m2
09:42 -2.2 °C -6.2 °C 1028.7 hPa SW 1.6 km/h 1.6 km/h 74% 0 mm 264 W/m2
09:48 -2.1 °C -6.1 °C 1028.7 hPa SSW 1.6 km/h 1.6 km/h 74% 0 mm 269 W/m2
09:52 -1.9 °C -6.1 °C 1028.7 hPa Calm     73% 0 mm 272 W/m2
09:58 -1.5 °C -5.7 °C 1028.3 hPa Calm     73% 0 mm 294 W/m2
10:04 -1.6 °C -5.9 °C 1028.3 hPa Calm     72% 0 mm 313 W/m2
10:10 -0.9 °C -5.2 °C 1028.3 hPa Calm     73% 0 mm 301 W/m2
10:16 -0.5 °C -5.3 °C 1028.3 hPa Calm     70% 0 mm 316 W/m2
10:22 0 °C -5 °C 1028.7 hPa South 1.6 km/h 3.2 km/h 69% 0 mm 332 W/m2
10:28 0.4 °C -4.7 °C 1028.3 hPa South 1.6 km/h 3.2 km/h 69% 0 mm 338 W/m2
10:34 0.7 °C -4.9 °C 1028.3 hPa SW 1.6 km/h 6.4 km/h 66% 0 mm 343 W/m2
10:40 0.9 °C -4.9 °C 1028.3 hPa SSW 1.6 km/h 1.6 km/h 65% 0 mm 355 W/m2
10:46 1.3 °C -4.7 °C 1028.3 hPa SW 1.6 km/h 1.6 km/h 64% 0 mm 336 W/m2
10:52 1.4 °C -4.6 °C 1028.3 hPa SW 1.6 km/h 1.6 km/h 64% 0 mm 348 W/m2
11:04 1.4 °C -5.1 °C 1028.3 hPa SW 3.2 km/h 3.2 km/h 62% 0 mm 404 W/m2
11:09 1.8 °C -4.9 °C 1028.3 hPa SW 1.6 km/h 3.2 km/h 61% 0 mm 394 W/m2
12:32 3.7 °C -7.2 °C 1026.3 hPa WNW 3.2 km/h 4.8 km/h 45% 0 mm 411 W/m2
14:10 4.3 °C -7.5 °C 1025.3 hPa WNW 3.2 km/h 4.8 km/h 42% 0 mm 431 W/m2
15:09 4.2 °C -6.7 °C 1024.9 hPa WSW 1.6 km/h 3.2 km/h 45% 0 mm 200 W/m2
15:26 4.2 °C -6.4 °C 1024.9 hPa Calm   1.6 km/h 46% 0 mm 130 W/m2
16:29 3.2 °C -6 °C 1025.3 hPa Calm     51% 0 mm 19 W/m2
16:30 3.1 °C -5.8 °C 1025.3 hPa Calm     52% 0 mm 16 W/m2
16:32 3 °C -5.9 °C 1025.3 hPa Calm     52% 0 mm 14 W/m2
16:34 2.9 °C -5.8 °C 1025.3 hPa Calm     53% 0 mm 12 W/m2
16:36 2.7 °C -5.7 °C 1024.9 hPa Calm     54% 0 mm 9 W/m2
16:42 2.3 °C -5.6 °C 1024.9 hPa Calm     56% 0 mm 5 W/m2
16:48 2.1 °C -6.1 °C 1024.9 hPa Calm     55% 0 mm 5 W/m2
16:54 1.9 °C -6.2 °C 1024.9 hPa Calm     55% 0 mm 0 W/m2
16:58 1.8 °C -5.8 °C 1024.9 hPa Calm     57% 0 mm 0 W/m2
17:04 1.6 °C -5.6 °C 1024.9 hPa Calm     59% 0 mm 0 W/m2
17:10 1.3 °C -5.4 °C 1024.9 hPa Calm     61% 0 mm 0 W/m2
17:12 1.2 °C -5.5 °C 1024.9 hPa Calm     61% 0 mm 0 W/m2
17:18 0.9 °C -5.3 °C 1024.9 hPa Calm     63% 0 mm 0 W/m2
17:24 0.7 °C -5.6 °C 1024.9 hPa Calm     63% 0 mm 0 W/m2
17:30 0.5 °C -5.7 °C 1024.9 hPa Calm     63% 0 mm 0 W/m2
17:36 0.4 °C -5.4 °C 1024.9 hPa Calm     65% 0 mm 0 W/m2
17:42 0.2 °C -5.6 °C 1024.9 hPa Calm     65% 0 mm 0 W/m2
17:44 0.2 °C -5.4 °C 1024.9 hPa Calm     66% 0 mm 0 W/m2
17:50 0.1 °C -5.7 °C 1024.9 hPa Calm     65% 0 mm 0 W/m2
17:56 -0.1 °C -6.1 °C 1024.6 hPa Calm     64% 0 mm 0 W/m2
18:02 -0.2 °C -6.2 °C 1024.6 hPa Calm     64% 0 mm 0 W/m2
18:08 -0.2 °C -5.6 °C 1024.6 hPa Calm     67% 0 mm 0 W/m2
18:14 -0.3 °C -5.5 °C 1024.6 hPa Calm     68% 0 mm 0 W/m2
18:20 -0.5 °C -5.9 °C 1024.6 hPa Calm     67% 0 mm 0 W/m2
18:26 -0.6 °C -6.1 °C 1024.6 hPa Calm     66% 0 mm 0 W/m2
18:32 -0.6 °C -6 °C 1024.6 hPa Calm     67% 0 mm 0 W/m2
18:38 -0.7 °C -6.2 °C 1024.6 hPa Calm     66% 0 mm 0 W/m2
18:44 -0.7 °C -5.9 °C 1024.6 hPa Calm     68% 0 mm 0 W/m2
18:50 -0.8 °C -5.8 °C 1024.6 hPa Calm     69% 0 mm 0 W/m2
18:56 -0.9 °C -5.9 °C 1024.6 hPa Calm     69% 0 mm 0 W/m2
19:02 -1.1 °C -5.9 °C 1024.6 hPa Calm     70% 0 mm 0 W/m2
19:08 -1.3 °C -6.1 °C 1024.6 hPa Calm     70% 0 mm 0 W/m2
19:14 -1.4 °C -6.2 °C 1024.6 hPa Calm     70% 0 mm 0 W/m2
19:20 -1.4 °C -5.8 °C 1024.6 hPa Calm     72% 0 mm 0 W/m2
19:26 -1.6 °C -5.8 °C 1024.6 hPa Calm     73% 0 mm 0 W/m2
19:32 -1.7 °C -5.7 °C 1024.6 hPa Calm     74% 0 mm 0 W/m2
19:38 -1.8 °C -5.8 °C 1024.6 hPa Calm     74% 0 mm 0 W/m2
19:44 -1.9 °C -5.9 °C 1024.6 hPa Calm     74% 0 mm 0 W/m2
19:50 -2 °C -6 °C 1024.6 hPa Calm     74% 0 mm 0 W/m2
19:56 -2.1 °C -6.1 °C 1024.6 hPa Calm     74% 0 mm 0 W/m2
20:02 -2.1 °C -6.1 °C 1024.6 hPa Calm     74% 0 mm 0 W/m2
20:08 -2.1 °C -6.1 °C 1024.6 hPa Calm     74% 0 mm 0 W/m2
20:14 -2.1 °C -5.9 °C 1024.6 hPa Calm     75% 0 mm 0 W/m2
20:20 -2.2 °C -6 °C 1024.3 hPa Calm     75% 0 mm 0 W/m2
20:26 -2.2 °C -6.2 °C 1024.3 hPa Calm     74% 0 mm 0 W/m2
20:32 -2.2 °C -6.1 °C 1024.3 hPa Calm     75% 0 mm 0 W/m2
20:38 -2.3 °C -6 °C 1024.3 hPa Calm     76% 0 mm 0 W/m2
20:44 -2.4 °C -5.9 °C 1024.6 hPa Calm     77% 0 mm 0 W/m2
20:50 -2.6 °C -5.9 °C 1024.6 hPa Calm     78% 0 mm 0 W/m2
20:56 -2.6 °C -5.8 °C 1024.3 hPa Calm     79% 0 mm 0 W/m2
21:02 -2.7 °C -5.8 °C 1024.3 hPa Calm     79% 0 mm 0 W/m2
21:08 -2.7 °C -5.5 °C 1024.3 hPa Calm     81% 0 mm 0 W/m2
21:14 -2.7 °C -5.5 °C 1024.3 hPa Calm     81% 0 mm 0 W/m2
21:20 -2.7 °C -5.7 °C 1024.3 hPa Calm     80% 0 mm 0 W/m2
21:26 -2.8 °C -5.8 °C 1024.3 hPa Calm     80% 0 mm 0 W/m2
21:32 -2.8 °C -5.8 °C 1024.3 hPa Calm     80% 0 mm 0 W/m2
21:38 -2.8 °C -6.1 °C 1023.9 hPa Calm     78% 0 mm 0 W/m2
21:44 -2.8 °C -6.1 °C 1023.9 hPa Calm     78% 0 mm 0 W/m2
21:50 -2.9 °C -6.2 °C 1023.9 hPa Calm     78% 0 mm 0 W/m2
21:56 -3 °C -6.3 °C 1023.9 hPa Calm     78% 0 mm 0 W/m2
22:02 -3.1 °C -6.3 °C 1023.9 hPa Calm     78% 0 mm 0 W/m2
22:08 -3.2 °C -6.3 °C 1023.9 hPa Calm     79% 0 mm 0 W/m2
22:14 -3.2 °C -6.1 °C 1023.6 hPa Calm     80% 0 mm 0 W/m2
22:20 -3.2 °C -5.8 °C 1023.9 hPa Calm     82% 0 mm 0 W/m2
22:26 -3.3 °C -5.9 °C 1023.9 hPa Calm     82% 0 mm 0 W/m2
22:32 -3.3 °C -5.8 °C 1023.6 hPa Calm     83% 0 mm 0 W/m2
22:38 -3.4 °C -5.9 °C 1023.6 hPa Calm     83% 0 mm 0 W/m2
22:44 -3.3 °C -5.6 °C 1023.6 hPa Calm   1.6 km/h 84% 0 mm 0 W/m2
22:50 -3.2 °C -5.3 °C 1023.6 hPa Calm     85% 0 mm 0 W/m2
22:56 -3.1 °C -5.3 °C 1023.6 hPa Calm     85% 0 mm 0 W/m2
23:02 -3.2 °C -5.5 °C 1023.6 hPa Calm     84% 0 mm 0 W/m2
23:08 -3.2 °C -5.6 °C 1023.6 hPa Calm     84% 0 mm 0 W/m2
23:14 -3.3 °C -5.4 °C 1023.6 hPa Calm     85% 0 mm 0 W/m2
23:20 -3.3 °C -5.5 °C 1023.6 hPa Calm     85% 0 mm 0 W/m2
23:26 -3.4 °C -5.8 °C 1023.2 hPa Calm     84% 0 mm 0 W/m2
23:32 -3.5 °C -5.8 °C 1023.2 hPa Calm     84% 0 mm 0 W/m2
23:38 -3.6 °C -5.9 °C 1023.2 hPa Calm     84% 0 mm 0 W/m2
23:44 -3.7 °C -6 °C 1023.2 hPa Calm     84% 0 mm 0 W/m2
23:50 -3.8 °C -6.2 °C 1023.2 hPa Calm     84% 0 mm 0 W/m2
23:56 -3.9 °C -6.2 °C 1023.2 hPa Calm     84% 0 mm 0 W/m2
Country Meadow, Clay, NY, USA
Compliments of Weather Underground - 2 mb